Change the Weather History Date:

Wednesday, May 1, 2013

  Actual Average Record
Temperature  
Mean Temperature 69 °F 59 °F  
Max Temperature 82 °F 70 °F 88 °F (1952)
Min Temperature 56 °F 48 °F 32 °F (1963)
Degree Days  
Heating Degree Days 0 7  
Month to date heating degree days 0 7  
Since 1 July heating degree days 5230 5352  
Cooling Degree Days 4 1  
Month to date cooling degree days 4 1  
Year to date cooling degree days 18 21  
Growing Degree Days 20 (Base 50)    
Moisture  
Dew Point 55 °F    
Average Humidity 62    
Maximum Humidity 86    
Minimum Humidity 37    
Precipitation  
Precipitation 0.00 in 0.13 in 1.54 in (1983)
Month to date precipitation 0.00 0.13  
Year to date precipitation 14.12 9.90  
Snow  
Snow 0.00 in 0.00 in 0.20 in (1940)
Month to date snowfall 0.0 0.0  
Since 1 July snowfall 33.1 20.9  
Snow Depth 0.00 in    
Sea Level Pressure  
Sea Level Pressure 30.05 in    
Wind  
Wind Speed 8 mph (SSE)    
Max Wind Speed 20 mph    
Max Gust Speed 24 mph    
Visibility 10 miles    
Events      
T = Trace of Precipitation, MM = Missing Value Source: NWS Daily Summary

Daily Weather History Graph

Daily Weather History Graph

Search for Another Location

Airport or City:

Trip Planner

Search our weather history database for the weather conditions in past years. The results will help you decide how hot, cold, wet, or windy it might be!

Date:

Astronomy

May. 01, 2013 Rise Set
Actual Time 5:58 AM CDT 7:53 PM CDT
Civil Twilight 5:29 AM CDT 8:22 PM CDT
Nautical Twilight 4:53 AM CDT 8:58 PM CDT
Astronomical Twilight 4:15 AM CDT 9:37 PM CDT
Moon 1:02 AM CDT (5/1) 11:37 AM CDT (5/1)
Length of Visible Light 14h 53m
Length of Day
13h 54m
Waning Gibbous, 59% of the Moon is Illuminated
May 1
Waning Gibbous
May 2
Last Quarter
May 9
New
May 17
First Quarter
May 24
Full

Hourly Weather History & Observations

Time (CDT) Temp. Heat Index Dew Point Humidity Pressure Visibility Wind Dir Wind Speed Gust Speed Precip Events Conditions
12:52 AM 66.0 °F - 55.9 °F 70% 29.96 in 10.0 mi SSW 8.1 mph - N/A   Clear
1:52 AM 62.1 °F - 55.9 °F 80% 29.96 in 10.0 mi South 6.9 mph - N/A   Clear
2:52 AM 61.0 °F - 55.0 °F 81% 29.98 in 10.0 mi SSE 6.9 mph - N/A   Clear
3:52 AM 59.0 °F - 54.0 °F 83% 29.99 in 10.0 mi South 6.9 mph - N/A   Clear
4:52 AM 60.1 °F - 54.0 °F 80% 30.01 in 10.0 mi SSE 3.5 mph - N/A   Clear
5:52 AM 57.0 °F - 53.1 °F 87% 30.02 in 10.0 mi Calm Calm - N/A   Clear
6:52 AM 60.1 °F - 54.0 °F 80% 30.04 in 10.0 mi SSE 4.6 mph - N/A   Clear
7:52 AM 66.0 °F - 55.9 °F 70% 30.05 in 10.0 mi SSE 9.2 mph - N/A   Clear
8:52 AM 70.0 °F - 57.0 °F 63% 30.07 in 10.0 mi SSE 6.9 mph - N/A   Clear
9:52 AM 75.0 °F - 55.0 °F 50% 30.08 in 10.0 mi South 5.8 mph - 0.00 in   Clear
10:52 AM 77.0 °F - 51.1 °F 40% 30.08 in 10.0 mi SSW 9.2 mph - N/A   Clear
11:52 AM 79.0 °F - 53.1 °F 40% 30.07 in 10.0 mi South 11.5 mph 16.1 mph N/A   Partly Cloudy
12:52 PM 80.1 °F 79.9 °F 53.1 °F 39% 30.07 in 10.0 mi SSE 16.1 mph 20.7 mph N/A   Clear
1:52 PM 80.1 °F 79.9 °F 53.1 °F 39% 30.07 in 10.0 mi SE 17.3 mph 24.2 mph N/A   Clear
2:52 PM 82.0 °F 81.2 °F 53.1 °F 37% 30.07 in 10.0 mi SSE 15.0 mph 21.9 mph N/A   Clear
3:52 PM 82.0 °F 81.4 °F 55.0 °F 39% 30.07 in 10.0 mi South 17.3 mph 23.0 mph N/A   Scattered Clouds
4:52 PM 79.0 °F - 54.0 °F 42% 30.07 in 10.0 mi SSE 10.4 mph - N/A   Partly Cloudy
5:52 PM 79.0 °F - 55.0 °F 44% 30.06 in 10.0 mi South 8.1 mph - N/A   Clear
6:52 PM 77.0 °F - 54.0 °F 45% 30.06 in 10.0 mi South 8.1 mph - N/A   Clear
7:52 PM 73.9 °F - 55.9 °F 53% 30.07 in 10.0 mi SSE 5.8 mph - N/A   Clear
8:52 PM 73.0 °F - 57.0 °F 57% 30.09 in 10.0 mi SSE 8.1 mph - N/A   Clear
9:52 PM 70.0 °F - 57.0 °F 63% 30.09 in 10.0 mi SE 8.1 mph - N/A   Clear
10:52 PM 71.1 °F - 57.0 °F 61% 30.09 in 10.0 mi SSE 9.2 mph - N/A   Clear
11:52 PM 69.1 °F - 57.0 °F 65% 30.10 in 10.0 mi South 3.5 mph - N/A   Clear